EW7912 Weather Reports


Display with metric or nautical units.
time (UTC)temp
F
wind
direction
speed
MPH
gust
MPH
rain 1hr
in
rain 24hr
in
rain mn
in
humidity
%
barometer
mb
20260509161738 75 239 2.0 5.0 0.00 0.00 0.00 95 1010.8
20260509161245 75 190 2.0 6.0 0.00 0.00 0.00 95 1010.7
20260509160725 75 190 1.0 6.0 0.00 0.00 0.00 95 1010.7
20260509160219 75 318 0.0 2.0 0.00 0.00 0.00 96 1010.5
20260509155714 75 278 0.0 2.0 0.00 0.00 0.00 96 1010.5
20260509155208 74 277 0.0 3.0 0.00 0.00 0.00 96 1010.5
20260509154702 74 238 0.0 3.0 0.00 0.00 0.00 95 1010.5
20260509154156 74 215 0.0 0.0 0.00 0.00 0.00 96 1010.5
20260509153649 74 234 0.0 0.0 0.00 0.00 0.00 95 1010.5
20260509153144 73 234 0.0 0.0 0.00 0.00 0.00 95 1010.6
20260509152638 73 233 0.0 0.0 0.00 0.00 0.00 95 1010.6
20260509152349 73 233 0.0 0.0 0.00 0.00 0.00 95 1010.7
20260509151631 73 233 0.0 0.0 0.00 0.00 0.00 95 1010.8
20260509151120 73 233 0.0 0.0 0.00 0.00 0.00 95 1010.8
20260509150615 73 227 0.0 0.0 0.00 0.00 0.00 95 1010.8
20260509150110 72 227 0.0 0.0 0.00 0.00 0.00 95 1010.9
20260509145601 72 227 0.0 0.0 0.00 0.00 0.00 95 1010.9
20260509145055 72 227 0.0 0.0 0.00 0.00 0.00 95 1010.9
20260509144550 72 227 0.0 0.0 0.00 0.00 0.00 95 1010.9
20260509144044 72 227 0.0 0.0 0.00 0.00 0.00 95 1010.9
20260509143538 72 227 0.0 0.0 0.00 0.00 0.00 95 1010.9
20260509143031 72 227 0.0 0.0 0.00 0.00 0.00 95 1011.0
20260509142749 72 227 0.0 0.0 0.00 0.00 0.00 95 1011.1
20260509142020 72 227 0.0 0.0 0.00 0.00 0.00 95 1011.0
20260509141519 72 225 0.0 0.0 0.00 0.00 0.00 95 1011.0
20260509141236 72 225 0.0 0.0 0.00 0.00 0.00 95 1011.0
20260509140516 72 225 0.0 0.0 0.00 0.00 0.00 95 1010.9
20260509140013 72 225 0.0 0.0 0.00 0.00 0.00 95 1010.9
20260509135514 72 225 0.0 0.0 0.00 0.00 0.00 95 1011.0
20260509135014 72 226 0.0 0.0 0.00 0.00 0.00 95 1010.9
20260509134735 72 226 0.0 0.0 0.00 0.00 0.00 95 1010.8
20260509134009 72 226 0.0 0.0 0.00 0.00 0.00 95 1010.8
20260509133508 72 225 0.0 0.0 0.00 0.00 0.00 95 1010.8
20260509133005 72 290 0.0 0.0 0.00 0.00 0.00 95 1010.8
20260509132504 72 293 0.0 0.0 0.00 0.00 0.00 95 1010.9
20260509132001 72 294 0.0 0.0 0.00 0.00 0.00 95 1010.8
20260509131725 72 292 0.0 0.0 0.00 0.00 0.00 95 1010.7
20260509131002 71 292 0.0 0.0 0.00 0.00 0.00 95 1010.7
20260509130502 71 292 0.0 0.0 0.00 0.00 0.00 95 1010.6
20260509130001 71 292 0.0 0.0 0.00 0.00 0.00 95 1010.6
20260509125500 71 292 0.0 0.0 0.00 0.00 0.00 95 1010.6
20260509124957 71 293 0.0 0.0 0.00 0.00 0.00 94 1010.7
20260509124936 71 293 0.0 0.0 0.00 0.00 0.00 95 1010.8
20260509123958 71 293 0.0 0.0 0.00 0.00 0.00 94 1010.7
20260509123510 71 177 0.0 0.0 0.00 0.00 0.00 95 1010.6
20260509123319 71 118 0.0 0.0 0.00 0.00 0.00 95 1010.4
20260509123212 71 118 0.0 0.0 0.00 0.00 0.00 95 1010.3
20260509121956 71 118 0.0 0.0 0.00 0.00 0.00 94 1010.3
20260509121456 71 118 0.0 0.0 0.00 0.00 0.00 94 1010.3
20260509120956 71 191 0.0 0.0 0.00 0.00 0.00 94 1010.3
20260509120502 71 209 0.0 0.0 0.00 0.00 0.00 94 1010.3
20260509115956 71 240 0.0 0.0 0.00 0.00 0.00 94 1010.2
20260509115720 71 242 0.0 0.0 0.00 0.00 0.00 94 1010.1
20260509114951 71 242 0.0 0.0 0.00 0.00 0.00 94 1010.0
20260509114451 71 242 0.0 2.0 0.00 0.00 0.00 94 1010.0
20260509113952 71 242 0.0 2.0 0.00 0.00 0.00 94 1010.0
20260509113452 71 251 0.0 2.0 0.00 0.00 0.00 94 1009.8
20260509112952 71 252 0.0 2.0 0.00 0.00 0.00 94 1009.8
20260509112452 71 273 1.0 4.0 0.00 0.00 0.00 94 1009.7
20260509112213 71 234 1.0 5.0 0.00 0.00 0.00 94 1009.5
20260509111452 71 131 0.0 5.0 0.00 0.00 0.00 94 1009.3
20260509111224 70 161 0.0 2.0 0.00 0.00 0.00 94 1009.3
20260509110451 71 144 0.0 3.0 0.00 0.00 0.00 94 1009.2
20260509105952 70 173 0.0 3.0 0.00 0.00 0.00 94 1009.3
20260509105452 70 94 1.0 2.0 0.00 0.00 0.00 94 1009.6
20260509104951 70 194 0.0 2.0 0.00 0.00 0.00 94 1009.0
20260509104452 70 244 0.0 1.0 0.00 0.00 0.00 94 1009.7
20260509103951 70 244 0.0 1.0 0.00 0.00 0.00 94 1009.7
20260509103453 70 234 0.0 0.0 0.00 0.00 0.00 94 1009.7
20260509102949 70 216 0.0 2.0 0.00 0.00 0.00 94 1009.8
20260509102451 70 217 0.0 3.0 0.00 0.00 0.00 94 1009.8
20260509102200 70 262 0.0 3.0 0.00 0.00 0.00 94 1009.8
20260509101443 70 191 1.0 3.0 0.00 0.00 0.00 93 1009.8
20260509100931 70 191 1.0 3.0 0.00 0.00 0.00 93 1009.6
20260509100425 70 218 0.0 3.0 0.00 0.00 0.00 93 1009.8
20260509095919 70 224 0.0 0.0 0.00 0.00 0.00 93 1009.9
20260509095412 70 226 0.0 0.0 0.00 0.00 0.00 93 1010.0
20260509094907 70 224 0.0 0.0 0.00 0.00 0.00 93 1010.0
20260509094401 70 224 0.0 0.0 0.00 0.00 0.00 93 1010.2
20260509093855 70 118 0.0 0.0 0.00 0.00 0.00 93 1010.2
20260509093349 70 118 0.0 0.0 0.00 0.00 0.00 93 1010.1
20260509092843 70 118 0.0 0.0 0.00 0.00 0.00 93 1010.1
20260509092337 70 117 0.0 0.0 0.00 0.00 0.00 93 1010.1
20260509091831 70 118 0.0 0.0 0.00 0.00 0.00 93 1010.0
20260509091553 70 107 0.0 0.0 0.00 0.00 0.00 93 1010.0
20260509090821 70 34 0.0 0.0 0.00 0.00 0.00 93 1009.9
20260509090313 70 120 0.0 0.0 0.00 0.00 0.00 93 1009.7
20260509085806 70 119 0.0 0.0 0.00 0.00 0.00 93 1009.6
20260509085523 70 116 0.0 0.0 0.00 0.00 0.00 93 1009.8
20260509084757 70 116 0.0 0.0 0.00 0.00 0.00 93 1009.9
20260509084249 70 116 0.0 0.0 0.00 0.00 0.00 93 1009.9
20260509084008 70 116 0.0 0.0 0.00 0.00 0.00 93 1010.1
20260509083237 70 116 0.0 0.0 0.00 0.00 0.00 92 1010.2
20260509082954 70 116 0.0 0.0 0.00 0.00 0.00 93 1010.4
20260509082225 70 49 0.0 0.0 0.00 0.00 0.00 93 1010.7
20260509081942 70 49 0.0 0.0 0.00 0.00 0.00 92 1010.8
20260509081213 70 49 0.0 0.0 0.00 0.00 0.00 92 1010.7
20260509080707 70 49 0.0 0.0 0.00 0.00 0.00 92 1010.8
20260509080201 70 49 0.0 0.0 0.00 0.00 0.00 92 1010.9
20260509075654 70 49 0.0 0.0 0.00 0.00 0.00 92 1010.9
20260509075148 70 49 0.0 0.0 0.00 0.00 0.00 92 1010.8
20260509074643 70 49 0.0 0.0 0.00 0.00 0.00 92 1010.9
20260509074354 70 27 0.0 0.0 0.00 0.00 0.00 92 1011.0
20260509073631 70 21 0.0 0.0 0.00 0.00 0.00 92 1010.8
20260509073124 70 17 0.0 2.0 0.00 0.00 0.00 92 1010.6
20260509072618 70 5 1.0 4.0 0.00 0.00 0.00 91 1010.7
20260509072330 70 323 2.0 5.0 0.00 0.00 0.00 91 1010.6
20260509071835 70 26 1.0 5.0 0.00 0.00 0.00 91 1010.5
20260509071323 70 5 1.0 3.0 0.00 0.00 0.00 91 1010.4
20260509071042 70 63 1.0 3.0 0.00 0.00 0.00 90 1010.1
20260509065543 71 100 0.0 3.0 0.00 0.00 0.00 90 1010.0
20260509065037 71 178 0.0 4.0 0.00 0.00 0.00 90 1010.3
20260509064530 71 124 0.0 5.0 0.00 0.00 0.00 90 1010.2
20260509064025 71 84 0.0 5.0 0.00 0.00 0.00 90 1010.1
20260509063739 71 178 0.0 1.0 0.00 0.00 0.00 90 1010.1
20260509063452 71 144 0.0 1.0 0.00 0.00 0.00 90 1010.7
20260509062507 71 144 0.0 0.0 0.00 0.00 0.00 90 1010.9
20260509062000 71 144 0.0 1.0 0.00 0.00 0.00 90 1011.1
20260509061455 71 144 0.0 1.0 0.00 0.00 0.00 90 1011.4
20260509060949 71 142 0.0 1.0 0.00 0.00 0.00 89 1011.4
20260509060925 71 115 0.0 1.0 0.00 0.00 0.00 89 1011.4
20260509055937 71 94 0.0 1.0 0.00 0.00 0.00 89 1011.4
20260509055432 71 93 0.0 0.0 0.00 0.00 0.00 89 1011.5
20260509055149 71 93 0.0 0.0 0.00 0.00 0.00 90 1011.5
20260509054418 71 93 0.0 1.0 0.00 0.00 0.00 89 1011.6
20260509053913 71 93 0.0 1.0 0.00 0.00 0.00 89 1011.6
20260509053625 71 93 0.0 0.0 0.00 0.00 0.00 89 1011.7
20260509052901 71 94 0.0 1.0 0.00 0.00 0.00 89 1011.6
20260509052355 71 92 0.0 1.0 0.00 0.00 0.00 89 1011.5
20260509051849 71 78 0.0 0.0 0.00 0.00 0.00 89 1011.5
20260509051342 71 71 0.0 1.0 0.00 0.00 0.00 89 1011.4
20260509050837 71 70 0.0 1.0 0.00 0.00 0.00 89 1011.4
20260509050548 71 70 0.0 1.0 0.00 0.00 0.00 89 1011.2
20260509050047 71 107 0.0 0.0 0.00 0.00 0.00 89 1011.0
20260509045319 71 113 0.0 0.0 0.00 0.00 0.00 89 1010.8
20260509044814 71 113 0.0 0.0 0.00 0.00 0.00 89 1010.7
20260509044746 71 113 0.0 0.0 0.00 0.00 0.00 88 1010.8
20260509043802 71 144 0.0 0.0 0.00 0.00 0.00 88 1010.8
20260509043254 71 144 0.0 0.0 0.00 0.00 0.00 88 1010.7
20260509042749 71 144 0.0 2.0 0.00 0.00 0.00 88 1010.6
20260509042243 71 144 0.0 2.0 0.00 0.00 0.00 88 1010.5
20260509041736 71 172 0.0 2.0 0.00 0.00 0.00 88 1010.4
20260509041452 71 117 0.0 2.0 0.00 0.00 0.00 88 1010.3
20260509040724 71 130 0.0 0.0 0.00 0.00 0.00 88 1010.3
20260509040218 71 79 0.0 0.0 0.00 0.00 0.00 88 1010.3
20260509035713 71 79 0.0 0.0 0.00 0.00 0.00 88 1010.4
20260509035207 71 74 0.0 0.0 0.00 0.00 0.00 88 1010.4
20260509034700 71 73 0.0 0.0 0.00 0.00 0.00 87 1010.5
20260509034155 71 73 0.0 0.0 0.00 0.00 0.00 87 1010.5
20260509033649 71 72 0.0 0.0 0.00 0.00 0.00 87 1010.5
20260509033406 71 72 0.0 0.0 0.00 0.00 0.00 87 1010.4
20260509032859 71 69 0.0 0.0 0.00 0.00 0.00 87 1010.3
20260509032131 71 55 0.0 0.0 0.00 0.00 0.00 86 1010.3
20260509031625 71 55 0.0 0.0 0.00 0.00 0.00 86 1010.3
20260509031118 71 55 0.0 0.0 0.00 0.00 0.00 86 1010.2
20260509030612 71 55 0.0 0.0 0.00 0.00 0.00 86 1010.2
20260509030107 71 55 0.0 0.0 0.00 0.00 0.00 86 1010.2
20260509025601 71 55 0.0 0.0 0.00 0.00 0.00 86 1010.0
20260509025055 71 55 0.0 0.0 0.00 0.00 0.00 86 1010.0
20260509024549 72 55 0.0 0.0 0.00 0.00 0.00 86 1009.8
20260509024043 72 55 0.0 0.0 0.00 0.00 0.00 86 1009.7
20260509023538 72 55 0.0 0.0 0.00 0.00 0.00 85 1009.8
20260509023031 72 55 0.0 0.0 0.00 0.00 0.00 85 1009.7
20260509022729 72 55 0.0 0.0 0.00 0.00 0.00 85 1009.8
20260509022617 72 55 0.0 0.0 0.00 0.00 0.00 85 1009.7
20260509021523 72 55 0.0 0.0 0.00 0.00 0.00 85 1009.8
20260509021240 72 55 0.0 0.0 0.00 0.00 0.00 85 1009.6
20260509020520 72 55 0.0 0.0 0.00 0.00 0.00 84 1009.5
20260509020018 72 55 0.0 0.0 0.00 0.00 0.00 84 1009.4
20260509015515 72 55 0.0 0.0 0.00 0.00 0.00 84 1009.3
20260509015229 73 55 0.0 0.0 0.00 0.00 0.00 83 1009.2
20260509015000 73 55 0.0 0.0 0.00 0.00 0.00 83 1009.0
20260509014009 73 55 0.0 0.0 0.00 0.00 0.00 83 1008.9
20260509013730 73 55 0.0 0.0 0.00 0.00 0.00 82 1008.8
20260509013007 73 55 0.0 1.0 0.00 0.00 0.00 82 1008.8
20260509012507 74 154 0.0 3.0 0.00 0.00 0.00 81 1008.6
20260509012004 74 169 0.0 3.0 0.00 0.00 0.00 80 1008.5
20260509011502 74 96 0.0 3.0 0.00 0.00 0.00 80 1008.5
20260509011001 75 92 1.0 2.0 0.00 0.00 0.00 80 1008.6
20260509010500 75 97 1.0 2.0 0.00 0.00 0.00 79 1008.6
20260509010002 75 105 1.0 5.0 0.00 0.00 0.00 78 1008.5
20260509005502 76 155 1.0 5.0 0.00 0.00 0.00 77 1008.5
20260509005221 76 83 1.0 4.0 0.00 0.00 0.00 77 1008.6
20260509004722 76 200 1.0 4.0 0.00 0.00 0.00 76 1008.6
20260509004000 76 225 1.0 4.0 0.00 0.00 0.00 76 1008.6
20260509003501 76 196 1.0 4.0 0.00 0.00 0.00 76 1008.6
20260509003000 77 229 1.0 4.0 0.00 0.00 0.00 75 1008.7
20260509002500 77 86 1.0 4.0 0.00 0.00 0.00 75 1008.7
20260509002219 77 0 1.0 4.0 0.00 0.00 0.00 75 1008.6
20260509001500 77 65 1.0 5.0 0.00 0.00 0.00 76 1008.7
20260509001001 77 196 1.0 5.0 0.00 0.00 0.00 76 1008.5
20260509000501 77 129 1.0 6.0 0.00 0.00 0.00 76 1008.6
20260509000219 77 59 2.0 6.0 0.00 0.00 0.00 76 1008.6
20260508235501 77 117 2.0 5.0 0.00 0.00 0.00 75 1008.5
20260508235000 77 156 2.0 6.0 0.00 0.00 0.00 75 1008.6
20260508234500 77 137 1.0 6.0 0.00 0.00 0.00 75 1008.7
20260508234221 77 132 1.0 5.0 0.00 0.00 0.00 75 1008.8
20260508233501 77 129 1.0 5.0 0.00 0.00 0.00 74 1008.8
20260508233000 77 140 1.0 4.0 0.00 0.00 0.00 74 1008.9
20260508232500 78 98 1.0 3.0 0.00 0.00 0.00 74 1009.1
20260508232001 78 199 1.0 4.0 0.00 0.00 0.00 73 1009.3
20260508231724 78 197 0.0 4.0 0.00 0.00 0.00 73 1009.4
20260508231001 78 195 0.0 1.0 0.00 0.00 0.00 73 1009.6
20260508230501 78 207 0.0 3.0 0.00 0.00 0.00 72 1009.7
20260508230000 78 142 1.0 3.0 0.00 0.00 0.00 72 1009.8
20260508225502 79 104 1.0 3.0 0.00 0.00 0.00 71 1009.7
20260508225453 79 140 1.0 4.0 0.00 0.00 0.00 71 1009.7
20260508224500 79 210 1.0 4.0 0.00 0.00 0.00 71 1009.8
20260508223959 79 126 0.0 3.0 0.00 0.00 0.00 70 1009.8
20260508223459 79 26 1.0 4.0 0.00 0.00 0.00 70 1009.9
20260508222951 79 238 1.0 4.0 0.00 0.00 0.00 70 1009.7
20260508222446 79 213 2.0 6.0 0.00 0.00 0.00 70 1009.7
20260508221940 79 211 2.0 6.0 0.00 0.00 0.00 70 1009.5
20260508221434 79 90 2.0 6.0 0.00 0.00 0.00 70 1009.6
20260508220928 79 196 2.0 6.0 0.00 0.00 0.00 69 1009.7
20260508220643 79 198 1.0 4.0 0.00 0.00 0.00 69 1009.9
20260508215916 79 184 1.0 3.0 0.00 0.00 0.00 70 1010.3
20260508215411 79 227 1.0 3.0 0.00 0.00 0.00 70 1010.2
20260508214904 79 242 1.0 4.0 0.00 0.00 0.00 70 1010.2
20260508214617 79 111 1.0 4.0 0.00 0.00 0.00 70 1010.0
20260508213851 79 146 1.0 4.0 0.00 0.00 0.00 70 1010.0
20260508213614 79 92 1.0 5.0 0.00 0.00 0.00 69 1009.9
20260508212853 79 101 1.0 5.0 0.00 0.00 0.00 69 1009.9
20260508212352 79 104 1.0 4.0 0.00 0.00 0.00 69 1009.9
20260508211853 79 178 1.0 4.0 0.00 0.00 0.00 71 1009.9
20260508211353 79 48 1.0 4.0 0.00 0.00 0.00 70 1009.8
20260508210850 79 57 2.0 4.0 0.00 0.00 0.00 69 1010.0
20260508210609 79 46 2.0 4.0 0.00 0.00 0.00 68 1010.0
20260508205850 80 81 2.0 5.0 0.00 0.00 0.00 66 1010.0
20260508205350 80 52 2.0 5.0 0.00 0.00 0.00 66 1010.0
20260508204851 80 49 2.0 6.0 0.00 0.00 0.00 65 1009.9
20260508204351 81 71 2.0 6.0 0.00 0.00 0.00 66 1009.7
20260508203851 81 236 2.0 7.0 0.00 0.00 0.00 65 1009.7
20260508203350 80 258 3.0 8.0 0.00 0.00 0.00 64 1009.8
20260508202850 81 87 2.0 8.0 0.00 0.00 0.00 64 1010.0
20260508202350 81 46 2.0 6.0 0.00 0.00 0.00 62 1010.0
20260508201850 81 143 1.0 4.0 0.00 0.00 0.00 63 1010.2
20260508201345 81 118 1.0 7.0 0.00 0.00 0.00 64 1010.3
20260508200838 82 66 1.0 7.0 0.00 0.00 0.00 63 1010.4
20260508200332 82 140 1.0 2.0 0.00 0.00 0.00 62 1010.6
20260508195826 81 179 1.0 3.0 0.00 0.00 0.00 62 1010.7
20260508195321 81 194 1.0 3.0 0.00 0.00 0.00 62 1010.8
20260508194814 81 225 1.0 3.0 0.00 0.00 0.00 61 1010.8
20260508194308 81 169 1.0 4.0 0.00 0.00 0.00 61 1010.9
20260508193801 81 211 1.0 4.0 0.00 0.00 0.00 62 1011.0
20260508193256 80 222 2.0 6.0 0.00 0.00 0.00 64 1010.9
20260508192749 80 244 1.0 6.0 0.00 0.00 0.00 63 1011.0
20260508192244 79 203 1.0 4.0 0.00 0.00 0.00 64 1011.1
20260508191739 79 29 2.0 6.0 0.00 0.00 0.00 65 1011.0
20260508191231 79 20 3.0 10.0 0.00 0.00 0.00 63 1011.0
20260508190728 79 81 3.0 10.0 0.00 0.00 0.00 63 1011.0
20260508190437 80 5 2.0 4.0 0.00 0.00 0.00 63 1011.1
20260508185714 79 131 2.0 4.0 0.00 0.00 0.00 64 1011.2
20260508185208 79 336 2.0 6.0 0.00 0.00 0.00 65 1011.3
20260508184702 78 165 2.0 6.0 0.00 0.00 0.00 65 1011.3
20260508184156 78 103 2.0 8.0 0.00 0.00 0.00 67 1011.4
20260508183649 78 40 2.0 8.0 0.00 0.00 0.00 66 1011.5
20260508183143 78 96 2.0 7.0 0.00 0.00 0.00 66 1011.6
20260508182638 78 232 2.0 6.0 0.00 0.00 0.00 66 1011.6
20260508182132 78 216 2.0 6.0 0.00 0.00 0.00 66 1011.8
20260508181625 78 74 3.0 6.0 0.00 0.00 0.00 64 1011.9
20260508181119 78 53 2.0 6.0 0.00 0.00 0.00 65 1011.9
20260508180614 78 77 2.0 5.0 0.00 0.00 0.00 64 1012.0
20260508180110 78 90 2.0 7.0 0.00 0.00 0.00 63 1012.2
20260508175602 78 161 2.0 8.0 0.00 0.00 0.00 64 1012.3
20260508175056 77 56 2.0 8.0 0.00 0.00 0.00 65 1012.3
20260508174549 77 217 3.0 7.0 0.00 0.00 0.00 67 1012.4
20260508174305 77 192 3.0 7.0 0.00 0.00 0.00 67 1012.6
20260508173538 77 10 2.0 7.0 0.00 0.00 0.00 69 1012.6
20260508173031 76 120 3.0 9.0 0.00 0.00 0.00 69 1012.7
20260508172526 76 182 3.0 9.0 0.00 0.00 0.00 68 1012.8
20260508172020 76 199 2.0 5.0 0.00 0.00 0.00 68 1012.9
20260508171514 76 105 2.0 5.0 0.00 0.00 0.00 68 1013.1
20260508171007 76 305 2.0 5.0 0.00 0.00 0.00 68 1013.1
20260508170502 76 217 2.0 7.0 0.00 0.00 0.00 69 1013.1
20260508165956 75 172 2.0 7.0 0.00 0.00 0.00 70 1013.2
20260508165451 75 115 1.0 5.0 0.00 0.00 0.00 69 1013.6
20260508164944 74 195 2.0 8.0 0.00 0.00 0.00 70 1013.8
20260508164438 74 225 3.0 8.0 0.00 0.00 0.00 70 1013.8
20260508164153 74 62 3.0 8.0 0.00 0.00 0.00 70 1014.0
20260508163426 74 88 3.0 8.0 0.00 0.00 0.00 72 1014.1
20260508162920 73 206 3.0 8.0 0.00 0.00 0.00 71 1014.1
20260508162413 73 212 2.0 7.0 0.00 0.00 0.00 72 1014.3
20260508162127 73 92 2.0 7.0 0.00 0.00 0.00 72 1014.4